www.pogodaiklimat.ru

Погода и климат >> Архив погоды >> Россия >> Курганская область >> Целинное


ПОГОДА в Целинном

  • Прогноз погоды в Целинном
  • Монитор погоды в Целинном
  • Климат города

АРХИВ ПОГОДЫ в Целинном

Время (UTC), дата Ветер
(напр.,м/с)
 
Видим.   Явления Облачность Т
(С)
Тd
(С)
f
(%)
Тe
(С)
Тes
(С)
Комфортность P
(гПа)
Po
(гПа)
Тmin
(С)
Tmax
(С)
R
(мм)
R24
(мм)
S
(см)
06 6.12 ЮВ 1 20 км 8/0
[Ci]
-15.0 -17.9 78 -18 -17 1034.6 1015.0 -20.6
09 6.12 Ю 1 50 км 9/1 600 м
[Sc Ci]
-9.3 -14.0 69 -12 -11 1033.8 1014.6
12 6.12 ЮВ 1 20 км 6/3 600 м
[Sc Ci]
-14.0 -16.6 81 -16 -16 1033.7 1014.2
15 6.12 В 1 10 км 3/1 600 м
[Sc Ci]
-16.4 -18.7 82 -19 -19 1033.6 1013.9 -9.1
18 6.12 штиль 0 н/о н/о -14.5 -16.8 83 -15 -15 1032.9 1013.3
21 6.12 В 1 н/о н/о -13.3 -15.6 83 -16 -16 1032.6 1013.1
00 7.12 штиль 0 н/о н/о -16.7 -19.1 82 -17 -17 1032.3 1012.6
03 7.12 штиль 0 10 км ясно -19.0 -21.6 80 -19 -19 1031.7 1011.8 -19.2 9
06 7.12 штиль 0 50 км 4/0
[Ci]
-14.1 -17.1 78 -14 -13 1031.4 1011.8 -20.2
09 7.12 В 1 50 км 4/0
[Ci]
-8.2 -14.0 63 -10 -10 1030.0 1011.0
12 7.12 ЮВ 1 20 км ясно -12.5 -16.4 73 -15 -15 1030.1 1010.7
15 7.12 штиль 0 10 км ясно -18.2 -20.4 83 -18 -18 1030.1 1010.3 -8.1
03 8.12 штиль 0 10 км 1/1 600 м
[Sc]
-22.2 -25.0 78 -22 -22 1029.0 1008.9 -22.3 9
09 8.12 ЮВ 2 50 км 3/0
[Ci]
-8.5 -18.3 45 -13 -12 1027.9 1008.9
12 8.12 ЮВ 1 20 км 6/0
[Ci]
-13.3 -19.2 61 -16 -16 1028.2 1008.8
15 8.12 штиль 0 10 км 3/0
[Ci]
-19.1 -22.1 77 -19 -19 1028.6 1008.8 -8.3
21 8.12 штиль 0 н/о н/о -22.5 -25.2 79 -23 -23 1028.6 1008.5
03 9.12 СЗ 1 10 км ясно -25.5 -28.7 74 -29 -29 1028.3 1008.0 -26.1 9
09 9.12 ЮВ 1 50 км 4/0
[Ci]
-13.9 -21.2 54 -16 -15 1026.9 1007.5
15 9.12 штиль 0 10 км 3/0
[Ci]
-23.9 -27.0 75 -24 -24 1027.9 1007.7 -12.8
21 9.12 штиль 0 н/о н/о -27.5 -30.8 73 -28 -28 1028.2 1007.7
03 10.12 штиль 0 10 км ясно -29.3 -33.0 70 -29 -29 1027.8 1007.2 -29.3 9
09 10.12 штиль 0 20 км 10/0
[Ci]
-16.3 -22.7 58 -16 -16 1026.4 1006.9
15 10.12 ЮВ 1 10 км 3/0
[Ci]
-23.7 -26.8 76 -27 -27 1028.6 1008.4 -15.5
21 10.12 штиль 0 н/о н/о -28.0 -31.7 70 -28 -28 1029.5 1008.9
03 11.12 штиль 0 10 км ясно -26.9 -30.5 71 -27 -27 1030.3 1009.8 -29.0 9
09 11.12 С 1 50 км 6/0
[Ci]
-12.4 -16.7 70 -15 -14 1029.6 1010.2
15 11.12 штиль 0 10 км 10/0
[Ci]
-17.6 -20.2 80 -18 -18 1031.3 1011.6 -12.4
21 11.12 штиль 0 н/о н/о -16.9 -19.5 80 -17 -17 1030.8 1011.1
03 12.12 штиль 0 10 км 3/0
[Ci]
-20.0 -22.9 78 -20 -20 1031.4 1011.4 -20.2 9
09 12.12 штиль 0 20 км 3/0
[Ci]
-10.5 -14.9 70 -11 -10 1030.6 1011.4
15 12.12 ЮВ 1 10 км 3/0
[Ci]
-15.9 -18.2 82 -19 -19 1030.7 1011.1 -9.0
21 12.12 ЮВ 1 н/о н/о -19.1 -21.8 79 -22 -22 1030.2 1010.3

 

Местоположение метеостанции Целинное (Курганская область, Россия): широта 54.50 долгота 63.67 высота над уровнем моря 145 м.

В архиве по умолчанию представлена погода в Целинном за последнюю неделю. Архивные данные за месяц целиком и за предыдущие месяцы, начиная с января 2011 года, Вы можете получить, выбрав интересующий диапазон дат из раскрывающегося списка и нажав кнопку "Ввод!".


*Определитесь, кто Вы:
робот инопланетянин человек

Внимание! Время в таблицах - всемирное. Для получения местного времени необходимо прибавить поправку, которая в Целинном равна 5 ч.

Смотрите также архив погоды в соседних городах и на ближайших метеорологических станциях:

Погода в Октябрьском (Челябинская область, Россия) (63 км)
Погода в Куртамыше (Курганская область, Россия) (68 км)
Погода в Звериноголовском (Курганская область, Россия) (78 км)
Погода в Шумихе (Курганская область, Россия) (84 км)
Погода в Карабалыке (Костанайская область, Казахстан) (130 км)
Погода в Пресногорьковке (Костанайская область, Казахстан) (136 км)
Погода в Троицке (Челябинская область, Россия) (141 км)
Погода в Костанае (Костанайская область, Казахстан) (142 км)
Погода в Костанае 2 (Костанайская область, Казахстан) (145 км)
Погода в Южноуральске (Челябинская область, Россия) (150 км)

Пояснения к столбцам:

Ветер - указаны скорость ветра в м/с - средняя за 10 мин, порывы в срок и между сроками (в фигурных скобках) и направление, откуда дует ветер: С - северный, СВ - северо-восточный, В - восточный, ЮВ - юго-восточный, Ю - южный, ЮЗ - юго-западный, З - западный, СЗ - северо-западный.
Видимость - горизонтальная дальность видимости в метрах или километрах. При видимости от 1 до 10 км при отсутствии осадков обычно наблюдается дымка, при ухудшении видимости до 1 км и менее - туман. В сухую погоду видимость может ухудшаться дымом, пылью или мглою.
Явления - указаны атмосферные явления, наблюдавшиеся в срок или в последний час перед сроком; фигурными скобками обозначены явления, наблюдавшиеся между сроками (за 1-3 часа до срока); квадратными скобками обозначены град или гололедные отложения с указанием их диаметра в мм.
Облачность - указаны через наклонную черту общая и нижняя облачность в баллах и высота нижней границы облаков в метрах; квадратными скобками обозначены формы облаков: Ci - перистые, Cs - перисто-слоистые, Cc - перисто-кучевые, Ac - высококучевые, As - высокослоистые, Sc - слоисто-кучевые, Ns - слоисто-дождевые, Cu - кучевые, Cb - кучево-дождевые. Подробнее классификацию облаков см. в Атласе облаков (PDF).
T - Температура воздуха - температура, измеренная на высоте 2 м над землей.
Td - Температура точки росы - температура, при понижении до которой содержащийся в воздухе водяной пар достигнет насыщения.
f - Относительная влажность воздуха - влажноcть воздуха, измеренная на высоте 2 м над землей.
Te - Эффективная температура - температура, которую ощущает одетый по сезону человек в тени. Характеристика душности погоды. При расчете учитывается влияние влажности воздуха и скорости ветра на теплоощущения человека.
Tes - Эффективная температура на солнце - температура, которую ощущает человек, с поправкой на солнечный нагрев. Характеристика знойности погоды. Зависит от высоты солнца над горизонтом, облачности и скорости ветра. Ночью, в пасмурную погоду, а также при ветре 12 м/с и более поправка равна нулю.
P - Атмосферное давление - приведенное к уровню моря атмосферное давление.
Po - Атмосферное давление - измеренное на уровне метеостанции атмосферное давление.
Tmin - Минимальная температура - минимум температуры воздуха на высоте 2 м над землей.
Tmax - Максимальная температура - максимум температуры воздуха на высоте 2 м над землей.
R - Количество осадков - Количество выпавших осадков за период времени, мм. При наведении курсора мыши на число - период времени, за который выпало указанное количество осадков.
R24 - Количество осадков - Количество выпавших осадков за 24 часа, мм.
S - Снежный покров - Высота снежного покрова, см. При наведении курсора мыши на число - состояние снежного покрова и степень покрытия местности в баллах.